[[{"header":{"parameterUnit":"m.s-1","parameterCategory":1,"la1":30.2992,"la2":30.254,"lo1":-89.0895,"lo2":-89.0443,"dy":0.0025,"dx":0.0025,"nx":19,"ny":19,"refTime":"2026-04-30T09:00:00:Z","depth":0,"parameterNumber":2,"parameterNumberName":"U-component_of_WINDS"},"data":[0,0,0,2.2093,2.2095,2.217,2.217,2.2296,2.2298,0,0,0,0,0,0,0,0,0,0,0,2.2088,2.2089,2.2093,2.2095,2.217,2.217,2.2296,2.2298,0,0,0,0,0,0,0,0,0,0,0,2.2087,2.2089,2.2091,2.2096,2.217,2.217,2.2296,2.2229,0,0,0,0,0,0,0,0,0,0,2.2151,2.2162,2.2089,2.2091,2.2096,2.217,2.217,2.2225,2.2233,2.2275,0,2.2315,0,2.2309,2.2308,2.2308,0,0,0,2.2083,2.2156,2.2161,2.2091,2.2097,2.217,2.2133,2.2229,2.2238,2.2286,2.2317,2.2321,2.2311,2.2309,2.231,2.2587,2.2589,0,0,2.2079,2.2111,2.2155,2.2167,2.2156,2.2131,2.2135,2.2234,2.2271,2.2317,2.2323,2.2313,2.231,2.2311,2.2585,2.2588,0,0,0,2.2075,2.2109,2.211,2.2163,2.2174,2.2133,2.2139,2.2267,2.2264,2.2324,2.2314,2.2311,2.2313,2.2583,2.2586,2.2707,0,0,0,2.2072,2.2106,2.2109,2.2129,2.2173,2.2221,2.2169,2.2258,2.2268,2.2314,2.2311,2.2314,2.2581,2.2585,2.2699,2.2758,0,0,0,2.2077,2.2107,2.2123,2.2131,2.2164,2.2219,2.2222,2.2259,2.2262,2.2309,2.2315,2.258,2.2584,2.2692,2.2747,2.2839,0,0,0,2.2092,2.2231,2.2126,2.2277,2.2164,2.2293,2.222,2.2316,2.237,2.2312,2.2581,2.2586,2.269,2.274,2.2831,2.292,2.296,0,0,2.2285,2.2256,2.2343,2.225,2.2406,2.2279,2.2453,2.2474,2.2451,2.2543,2.255,2.2702,2.2746,2.2837,2.318,2.3212,0,0,0,2.2414,2.2477,2.2511,2.2563,2.2582,2.2602,2.2593,2.26,2.2677,2.2504,2.276,2.2785,2.2838,2.2878,2.2906,2.2947,2.2607,2.2606,2.2606,2.2732,2.2693,2.2834,2.2804,2.2856,2.2844,2.2883,2.2891,2.2839,2.29,2.2926,2.3139,2.3188,2.3208,2.3252,2.2972,2.2973,2.2973,2.2973,2.301,2.3091,2.3017,2.3125,2.3084,2.3176,2.3171,2.3131,2.321,2.3116,2.316,2.3058,2.3245,2.3281,2.2982,2.2981,2.2979,2.2979,2.2978,2.3211,2.3243,2.3249,2.332,2.338,2.3346,2.3425,2.3386,2.335,2.3394,2.3416,2.3414,2.3405,2.3407,2.3408,2.3409,2.341,2.341,2.3411,2.3416,2.3419,2.349,2.3521,2.3549,2.3581,2.3572,2.3598,2.3618,2.3583,2.3583,2.3523,2.3271,2.3207,2.3422,2.342,2.3418,2.3417,2.3416,2.3707,2.3634,2.3744,2.3772,2.3805,2.3866,2.3815,2.3873,2.389,2.393,2.3862,2.3682,2.3649,2.3627,2.3574,2.3871,2.3871,2.3871,2.3871,2.3874,2.3854,2.3956,2.4003,2.4045,2.401,2.4136,2.413,2.4114,2.4122,2.4074,2.4001,2.398,2.3959,2.393,2.3879,2.4247,2.4247,2.4248,2.4049,2.4031,2.4144,2.4126,2.4149,2.417,2.4286,2.4344,2.4311,2.4262,2.4127,2.4111,2.3992,2.3956,2.3901,2.3857,2.3763,0,0]},{"header":{"parameterUnit":"m.s-1","parameterCategory":1,"la1":30.2992,"la2":30.254,"lo1":-89.0895,"lo2":-89.0443,"dy":0.0025,"dx":0.0025,"nx":19,"ny":19,"refTime":"2026-04-30T09:00:00:Z","depth":0,"parameterNumber":3,"parameterNumberName":"V-component_of_WINDS"},"data":[0,0,0,2.8335,2.8341,2.8591,2.8592,2.8906,2.8909,0,0,0,0,0,0,0,0,0,0,0,2.8261,2.8263,2.8335,2.8341,2.859,2.8592,2.8906,2.8909,0,0,0,0,0,0,0,0,0,0,0,2.826,2.8263,2.8265,2.8342,2.859,2.8592,2.8905,2.8718,0,0,0,0,0,0,0,0,0,0,2.8476,2.8408,2.8262,2.8266,2.8343,2.859,2.8592,2.8709,2.8729,2.8792,0,2.885,0,2.8885,2.893,2.8931,0,0,0,2.8341,2.8391,2.8458,2.8266,2.8346,2.859,2.8478,2.872,2.8744,2.8819,2.8854,2.8866,2.889,2.8932,2.8934,2.93,2.9301,0,0,2.8327,2.8306,2.8442,2.8474,2.8438,2.847,2.8486,2.8734,2.877,2.8856,2.8874,2.8895,2.8934,2.8937,2.9298,2.93,0,0,0,2.8288,2.8296,2.8358,2.8461,2.8506,2.8477,2.8495,2.8759,2.8781,2.8877,2.8899,2.8936,2.894,2.9296,2.9299,2.9363,0,0,0,2.8279,2.8273,2.8351,2.8341,2.8501,2.8636,2.8514,2.8764,2.8793,2.8897,2.8936,2.8943,2.9295,2.9298,2.9357,2.9396,0,0,0,2.8245,2.8269,2.8305,2.8339,2.8446,2.8633,2.8669,2.8771,2.8806,2.8931,2.8944,2.9293,2.9297,2.9352,2.9387,2.9484,0,0,0,2.8202,2.8359,2.8306,2.8491,2.8444,2.8672,2.8668,2.8838,2.8954,2.8938,2.9295,2.9299,2.935,2.9382,2.9478,2.956,2.9593,0,0,2.8389,2.8381,2.8491,2.8451,2.8683,2.8635,2.8876,2.9001,2.9032,2.9208,2.9217,2.9359,2.9387,2.9483,2.9788,2.9813,0,0,0,2.8543,2.8621,2.8688,2.8797,2.8897,2.8985,2.9076,2.9122,2.9272,2.9119,2.9422,2.9439,2.9496,2.9536,2.9558,2.9607,2.9317,2.9317,2.9316,2.8776,2.8807,2.899,2.9052,2.9157,2.9249,2.9336,2.9413,2.9415,2.9485,2.9537,2.9718,2.9764,2.9781,2.9831,2.9585,2.9585,2.9585,2.9585,2.905,2.9164,2.9162,2.9339,2.937,2.9518,2.9611,2.9606,2.9746,2.9682,2.9734,2.9659,2.9808,2.9854,2.9591,2.959,2.9589,2.9589,2.9588,2.9203,2.9263,2.9318,2.9477,2.9597,2.9653,2.9787,2.9812,2.9835,2.9887,2.9942,2.9941,2.994,2.9912,2.9912,2.9913,2.9914,2.9914,2.9914,2.9339,2.9399,2.951,2.9629,2.9701,2.9799,2.9892,2.9963,3.0047,3.0053,3.0054,3.0045,2.9818,2.9759,2.9924,2.9923,2.9921,2.992,2.992,2.9601,2.9545,2.9717,2.979,2.993,3.0045,3.0075,3.0217,3.0279,3.0343,3.0325,3.0154,3.0147,3.013,3.008,3.0319,3.0319,3.0319,3.0319,2.9728,2.9728,2.9908,3.0021,3.0136,3.018,3.0369,3.0442,3.0508,3.0548,3.0517,3.0455,3.0436,3.0441,3.0417,3.0371,3.0678,3.0678,3.0679,2.9889,2.99,3.0058,3.0124,3.0235,3.0329,3.0507,3.0635,3.0699,3.0694,3.0578,3.0563,3.0463,3.043,3.0419,3.0381,3.0298,0,0]}]]